FW1460 Somerset MA US current weather conditions

sailwx.info

Wind from 323

Air temperature 22.2° C
Dewpoint 16.7° C

Last reported at 2019-Aug-23 22:01 UTC.
Time now 2019-Aug-23 22:22 UTC

Location: N 41°46' W 071°09'.
View on Google Maps.

See reports from other nearby stations

  
Tides and Currents Weather Stations Pressure Air Temp Water Temp Dewpoint Dewpoint Depression Visibility Wind Speed Wind Dir Waves Ship Positions
date/time (UTC)wind fromknots sea level pressurealtimeterstation pressurevisibilityair tempwater tempwave heightnotes
2019-Aug-23 22:01 323 22.2
2019-Aug-23 21:32 323 22.8
2019-Aug-23 21:15 334 22.8
2019-Aug-23 20:47 342 0 gusting 2 23.3
2019-Aug-23 20:30 355 22.8
2019-Aug-23 20:02 342 0 gusting 2 23.3
2019-Aug-23 19:45 102 23.9
2019-Aug-23 19:30 332 0 gusting 7 24.4
2019-Aug-23 19:01 247 0 gusting 3 23.9
2019-Aug-23 18:31 344 0 gusting 5 23.3
2019-Aug-23 18:15 019 2 gusting 6 22.8
2019-Aug-23 17:46 355 1 gusting 6 22.8
2019-Aug-23 17:31 022 1 gusting 4 22.8
2019-Aug-23 17:02 310 21.7
2019-Aug-23 16:45 343 21.1
2019-Aug-23 16:16 232 20.6
2019-Aug-23 16:00 198 20.6
2019-Aug-23 15:31 215 20.0
2019-Aug-23 15:15 213 19.4
2019-Aug-23 14:46 207 18.9
2019-Aug-23 14:30 203 18.9
2019-Aug-23 14:02 224 18.3
2019-Aug-23 13:45 224 17.8
2019-Aug-23 13:16 299 17.8
2019-Aug-23 13:00 298 17.8
2019-Aug-23 12:31 322 18.3
2019-Aug-23 12:01 322 18.9
2019-Aug-23 11:45 322 19.4
2019-Aug-23 11:16 322 19.4
2019-Aug-23 11:00 320 19.4
2019-Aug-23 10:31 005 18.9
2019-Aug-23 10:02 284 19.4
2019-Aug-23 09:45 284 19.4
2019-Aug-23 09:31 284 19.4
2019-Aug-23 09:00 300 0 gusting 4 20.6
2019-Aug-23 08:45 311 20.6
2019-Aug-23 08:15 312 0 gusting 3 21.1
2019-Aug-23 08:00 342 1 gusting 4 20.6
2019-Aug-23 07:30 342 1 gusting 4 21.1
2019-Aug-23 07:01 199 21.7
2019-Aug-23 06:45 199 21.7
2019-Aug-23 06:16 199 22.2
2019-Aug-23 06:00 199 22.2
2019-Aug-23 05:47 199 22.8
2019-Aug-23 05:31 199 22.8
2019-Aug-23 05:02 199 23.3
2019-Aug-23 04:47 199 23.3
2019-Aug-23 04:31 199 23.3
2019-Aug-23 04:01 199 23.3
2019-Aug-23 03:46 199 23.3
2019-Aug-23 03:30 199 23.3
2019-Aug-23 03:01 198 23.3
2019-Aug-23 02:46 198 23.9
2019-Aug-23 02:30 198 23.9
2019-Aug-23 02:02 192 25.0
2019-Aug-23 01:31 217 25.0
2019-Aug-23 01:15 236 0 gusting 4 25.0
2019-Aug-23 00:47 194 0 gusting 4 25.0
2019-Aug-23 00:30 185 0 gusting 5 25.0
2019-Aug-23 00:01 212 1 gusting 6 25.6
2019-Aug-22 23:46 212 0 gusting 6 26.1
2019-Aug-22 23:30 200 0 gusting 5 26.1
2019-Aug-22 23:01 186 0 gusting 4 26.1
2019-Aug-22 22:45 250 1 gusting 6 26.7
2019-Aug-22 22:16 175 2 gusting 6 27.2
2019-Aug-22 21:46 213 3 gusting 12 27.8
2019-Aug-22 21:30 241 2 gusting 8 27.8
2019-Aug-22 21:01 284 4 gusting 9 28.3
2019-Aug-22 20:45 187 3 gusting 8 27.8
2019-Aug-22 20:30 187 2 gusting 8 27.8
2019-Aug-22 20:01 284 2 gusting 9 28.9
2019-Aug-22 19:45 186 5 gusting 14 28.3
2019-Aug-22 19:16 168 7 gusting 13 28.3
2019-Aug-22 19:00 171 4 gusting 8 28.9
2019-Aug-22 18:31 171 4 gusting 13 29.4
2019-Aug-22 18:16 171 5 gusting 10 30.0
2019-Aug-22 17:48 157 3 gusting 9 29.4
2019-Aug-22 17:30 207 3 gusting 8 30.6
2019-Aug-22 17:01 171 3 gusting 7 30.0
2019-Aug-22 16:46 177 2 gusting 6 30.6
2019-Aug-22 16:30 202 0 gusting 7 30.0
2019-Aug-22 16:01 202 4 gusting 8 28.9
2019-Aug-22 15:45 187 1 gusting 6 29.4
2019-Aug-22 15:32 182 3 gusting 6 28.9
2019-Aug-22 15:15 180 1 gusting 6 28.9
2019-Aug-22 15:00 198 2 gusting 6 28.3
2019-Aug-22 14:30 193 1 gusting 6 27.8
2019-Aug-22 14:02 209 1 gusting 5 25.6
2019-Aug-22 13:01 184 1 gusting 6 25.0
2019-Aug-22 12:45 198 0 gusting 7 25.0
2019-Aug-22 12:15 184 1 gusting 3 24.4
2019-Aug-22 11:47 182 2 gusting 6 23.9
2019-Aug-22 11:30 239 1 gusting 4 23.9
2019-Aug-22 11:01 163 2 gusting 4 23.3
2019-Aug-22 10:45 191 23.3
2019-Aug-22 10:16 192 23.3
2019-Aug-22 10:00 191 0 gusting 3 23.3
2019-Aug-22 09:47 190 23.3
2019-Aug-22 09:30 205 22.8
2019-Aug-22 09:01 205 23.3
2019-Aug-22 08:45 205 23.3
2019-Aug-22 08:31 200 1 gusting 4 23.3
2019-Aug-22 08:01 210 0 gusting 4 23.3
2019-Aug-22 07:30 178 0 gusting 5 23.3
2019-Aug-22 07:15 193 1 gusting 6 23.3
2019-Aug-22 07:02 198 1 gusting 4 23.3
2019-Aug-22 06:46 166 1 gusting 7 23.3
2019-Aug-22 06:16 179 1 gusting 5 23.3
2019-Aug-22 06:00 211 2 gusting 6 23.3
2019-Aug-22 05:30 182 1 gusting 5 23.3
2019-Aug-22 05:01 171 3 gusting 8 23.3
2019-Aug-22 04:31 175 1 gusting 8 23.3
2019-Aug-22 04:15 192 3 gusting 6 23.3
2019-Aug-22 04:02 184 2 gusting 6 23.3
2019-Aug-22 03:47 193 1 gusting 6 22.8
2019-Aug-22 03:30 208 22.2
2019-Aug-22 03:02 296 23.3
2019-Aug-22 02:45 189 2 gusting 7 24.4
2019-Aug-22 02:30 161 4 gusting 12 24.4
2019-Aug-22 02:01 184 3 gusting 8 24.4
2019-Aug-22 01:46 167 4 gusting 9 24.4
2019-Aug-22 01:01 189 3 gusting 9 25.0
2019-Aug-22 00:32 195 3 gusting 10 25.0
2019-Aug-22 00:16 195 4 gusting 10 25.0
2019-Aug-21 23:47 196 5 gusting 10 25.0
2019-Aug-21 23:30 191 4 gusting 12 25.6
2019-Aug-21 23:01 212 4 gusting 13 25.6
2019-Aug-21 22:45 151 4 gusting 11 25.6
2019-Aug-21 22:16 194 3 gusting 8 25.6